Find Starlink 30536

NORAD ID: 57993 Int'l Des: 2023-153 Owner: SPXS Country: US Constellation: starlink operational
LEOCIRCULAR

Current View

Loading 3D Globe...

About Starlink 30536

Starlink 30536 (NORAD 57993) is a starlink constellation satellite (v2 mini) launched Oct 5, 2023 by SPXS of US. It operates in LEO, CIRCULAR orbit with a mass of 730.00 kg.

About Starlink 30536

Description loading...

Upcoming Passes

Passes for default location (London). Set your location on the main map for personalized predictions.

Altitude History

Loading altitude history...

Two-Line Element Set

1 57993U 23153C 26167.86040630 -.00000018 00000-0 88588-5 0 9998
2 57993 43.0008 226.9624 0001367 268.7069 91.3626 15.27575293150061
Epoch: Jun 16, 2026 • Age: 27 hours

Current Status

Altitude 482.7 km
Velocity 7.63 km/s
Sub-Earth Point 18.94°N, 15.87°W
Launch Date Oct 5, 2023
Age 2.6 years
Type internet

Technical Details

Classification Payload
Mass 730.00 kg
Dry Mass 700.00 kg
Total Mass 730.00 kg
Length 0.30 m
Diameter 4.10 m
Span 29.00 m
Shape Box + pan
Manufacturer SPXS
Bus Type Starlink V2M
Phase Status In Orbit
Owner/State SPXS/US

Most Searched